STARLINK-33816, 63677

Orbit data source: Space-Track

STARLINK-33816, 63677 is a payload satellite owned by SpaceX/Seattle (US) in LEO that was launched on Mon, 28 Apr 2025 UTC via an FALCON 9 launch vehicle from the Air Force Eastern Test Range (AFETR). Payload-class satellites include a variety of spacecraft equipped with specific instruments for various scientific and technological missions. These include communications satellites like Starlink; space stations such as the ISS; scientific satellites like the Hubble; Earth observation satellites from companies like Planet Labs, Umbra, and HawkEye 360; GPS; miniature CubeSats for education and research; and military/defense satellites.

Loading next visibility...
Identifier
63677, 2025-085P
Orbit
LEO
Country
Flag of USUS
Related business
Manufacturer
SpaceX/Seattle
Mission
Operational Commercial Communications
Bus & Motor
STARLINK V2MO, Unknown motor
Mass
575 kg wet, ~530 kg dry
Launch date (UTC)
2025-04-28 (1 year ago)
Launch vehicle
FALCON 9
Launch site
Air Force Eastern Test Range (AFETR)
Object type
Payload
Rocket body
Debris
Shape & HBR
Box + 2 Pan, 17.7 m
Radar Cross Section
36.964 m², Large (>1 m²)

Expand to show TLE details & history
Last TLE update: 19 hours ago

TLE from 19 hours ago
0 STARLINK-33816
1 63677U 25085P   26171.05483516  .00012482  00000-0  46214-3 0  9995
2 63677  43.0038 172.9615 0001749 278.6765  81.3889 15.27593971 64626
Epoch: 2026-06-20T01:18Z
TLE epoch observation values (Epoch: 2026-06-20T01:18:57.757Z)
Latitude
-0°
Longitude
-115.05411°
Altitude
482.604 km
Speed
7.626 km/s
True Right ascension
11h 31m 50s
True Declination
0° 00' 00"
Sunlit
Object was in daylight at epoch
Visualization orbit readout
Latitude
Unknown
Longitude
Unknown
Altitude
Unknown
Speed
Unknown
Apparent Right ascension
Unknown
Apparent Declination
Unknown
Sunlit
N/A
Visualization observer readout
Local Sidereal Time
07:24:26
Azimuth
Unknown
Elevation
Unknown
Doppler factor
Unknown
Orbital elements
Apogee altitude
486.152 km
Perigee altitude
483.751 km
Semi-major axis
6,863.089 km
Eccentricity
0.00017
Inclination
43.0038°
RAAN
172.9615°
Arg. of periapsis
278.6765°
True anomaly
81.40872°
Mean anomaly
81.3889°
Eccentric anomaly
81.39881°
Mean motion
3.81737 °/min
Orbital period
94.31 mins
BSTAR
0.00046214
Loading maneuver chart data...
Computing Atmospheric mass density...
Loading historical data...
Loading historical data...
Loading historical data...
Loading historical data...
Loading historical data...
Loading historical data...
Loading historical data...

Documentation

Showing up to 5 results
|